7 * 24
多渠道服务支持
STARLINK-5470是美国SpaceX公司星链(Starlink)低轨卫星互联网星座中的一颗卫星,于2022年12月17日由猎鹰9号火箭发射升空。它属于星链第一代卫星,运行在近地轨道,配备相控阵天线与氪离子霍尔推进器,可自主规避太空碰撞,为全球提供高速低延迟卫星宽带互联网接入服务,是星链大规模组网中重要组成部分。
美国
(US)
| 数据来源 | 国际轨道数据 |
| 星历时间: | 2026-09-11T16:00:04+0800 6小时前 查看轨道信息 |
| 半长轴: | 6743.022km |
| 偏心率: | 0.0001133 |
| 轨道倾角: | 53.158° |
| 近地点辐角 | 96.124° |
| 升交点赤经 | 277.380° |
| 平近点角 | 343.100° |
| 近地点: | 364.121km |
| 远地点: | 365.649km |
| 周期: | 91.842分钟 |
| 每日圈数: | 15.679094 |
| 事件ID | 空间交会对象 | 最接近时刻(TCA) | 交会距离 | 交会风险概率(CRP) | 交会风险指数(CRI) | 操作 |
|---|---|---|---|---|---|---|
| CDM_260913-075105-477606-241421 |
STARLINK-5470
(54776)
STARLINK-11445
(62414) | 2026-09-13T 07:51:37+0000 |
0.858 km
远距离 | 3.716203E-5 中风险 | 0.66 | |
| CDM_260913-080105-477606-366921 |
STARLINK-5470
(54776)
STARLINK-11595
(63669) | 2026-09-13T 08:01:31+0000 |
0.719 km
远距离 | 3.341341E-5 中风险 | 0.65 | |
| CDM_260913-063005-477606-366921 |
STARLINK-5470
(54776)
STARLINK-11595
(63669) | 2026-09-13T 06:30:00+0000 |
1.458 km
极远距离 | 3.135825E-6 低风险 | 0.45 | |
| CDM_260913-135705-477606-241421 |
STARLINK-5470
(54776)
STARLINK-11445
(62414) | 2026-09-13T 13:57:32+0000 |
1.926 km
极远距离 | 2.630365E-6 低风险 | 0.43 | |
| CDM_260912-220205-477606-423821 |
STARLINK-5470
(54776)
STARLINK-11708
(64238) | 2026-09-12T 22:02:27+0000 |
1.930 km
极远距离 | 2.346241E-6 低风险 | 0.42 |